レナード彗星

C/2022 R3 ( Leonard )

English version
Home page
Updated on March 31, 2026

---------------------------------------------------------------------

・ プロフィール

発見日 2022年9月15日
発見光度 18.9等
発見者 Gregory J. Leonard (Mt. Lemmon)

・ 写真集

・ 軌道要素

Epoch 2025 May 5.0 TT = JDT 2460800.5
T 2023 Mar. 5.90194 TT                                  Pike
q   5.1317843            (2000.0)            P               Q
z  -0.0002967      Peri.   72.93010     +0.19019746     -0.97683339
 +/-0.0000010      Node     8.25793     +0.41303319     -0.01102212
e   1.0015229      Incl.   43.07305     +0.89063377     +0.21371718
From 351 observations 2022 Sept. 15-2025 Feb. 24, mean residual 0".6.

・ 光度変化

        m1 = 6.0 + 5 logΔ + 12.0 log r(t - 250)

---------------------------------------------------------------------

軌道要素はM.P.E.C. 2025-D254に掲載されたものです。
光度グラフはComet for Windowsで作成したものです。

---------------------------------------------------------------------

Copyright(C) Seiichi Yoshida (comet@aerith.net). All rights reserved.